Weather observations for the past three days for
Lakeland Linder International Airport
Imperial (Metric)
Date Time (edt) Wind (mph) Vis. (mi.) Weather Sky Cond. Temperature (ºF) Relative Humidity Wind Chill (°F) Heat Index (°F) Pressure Precipitation (in)
Air Dwpt 6 hour altimeter (in) sea level (mb) 1 hr 3 hr 6 hr
Max. Min.
24 01:35 Calm 10.00 Fair CLR 76.6 76.6 100% 77 30.18 0.0
24 01:15 E 3 10.00 Fair CLR 76.6 76.6 100% 77 30.19 0.0
24 00:55 Calm 10.00 Fair CLR 76.8 76.5 99% 77 30.2 0.0
24 00:35 Calm 10.00 Fair CLR 76.5 76.5 100% 76 30.21 0.0
24 00:15 Calm 10.00 Fair CLR 76.5 76.5 100% 76 30.21 0.0
23 23:50 Calm 10.00 Clear SKC 77 77 100% 78 30.21 0.0
23 22:50 N 3 10.00 Clear SKC 77 77 100% 78 30.21 0.0
23 21:50 W 3 10.00 Light Rain FEW031 75.2 75.2 100% 73 30.18 0.0
23 20:50 S 3 5.00 Light Rain Fog/Mist FEW015 SCT095 75.2 75.2 100% 73 30.15 0.0
23 19:50 SW 6 7.00 Light Rain FEW020 75.2 75.2 100% 73 30.16 0.0
23 18:50 S 16 G 24 5.00 Mostly Cloudy SCT010 BKN021 77 77 100% 78 30.15 0.0
23 17:50 Calm 10.00 Mostly Cloudy BKN095 84.2 80.6 89% 98 30.08 0.0
23 16:50 Calm 10.00 Partly Cloudy SCT038 84.2 78.8 84% 96 30.1 0.0
23 15:50 SW 16 G 32 5.00 Mostly Cloudy BKN030 80.6 75.2 84% 86 30.1 0.0
23 14:50 S 3 10.00 Mostly Cloudy BKN043 91.4 77 63% 105 30.12 0.0
23 13:50 S 3 10.00 Mostly Cloudy BKN040 89.6 75.2 63% 100 30.13 0.0
23 12:50 Calm 10.00 Mostly Cloudy BKN033 89.6 77 67% 103 30.15 0.0
23 11:50 S 6 10.00 Partly Cloudy SCT030 87.8 77 70% 100 30.15 0.0
23 10:50 S 6 10.00 Partly Cloudy SCT025 87.8 77 70% 100 30.16 0.0
23 09:50 S 5 10.00 Clear SKC 86 78.8 79% 99 30.16 0.0
23 08:50 SE 6 10.00 Clear SKC 78.8 77 94% 83 30.15 0.0
23 07:50 SE 5 10.00 Clear SKC 78.8 77 94% 83 30.13 0.0
23 06:50 S 5 10.00 Clear SKC 77 77 100% 78 30.11 0.0
23 05:55 S 5 10.00 Partly Cloudy SCT230 76.3 76.3 100% 76 30.1 0.0
23 05:50 Calm 10.00 Clear SKC 77 77 100% 78 30.09 0.0
23 05:35 S 3 10.00 Overcast OVC230 76.5 76.5 100% 76 30.1 0.0
23 05:15 Calm 10.00 Overcast OVC230 76.3 76.3 100% 76 30.09 0.0
23 04:55 Calm 10.00 Overcast OVC230 76.6 76.6 100% 77 30.09 0.0
23 04:35 SE 5 10.00 Overcast FEW180 OVC220 76.5 76.5 100% 76 30.08 0.0
23 04:15 S 6 10.00 Overcast OVC180 76.5 76.5 100% 76 30.08 0.0
23 03:55 SE 3 10.00 Overcast OVC180 76.1 76.1 100% 75 30.08 0.0
23 03:35 E 3 10.00 Overcast OVC180 75.7 75.4 99% 74 30.08 0.0
23 03:15 SE 3 10.00 Overcast BKN190 OVC240 76.3 75.9 99% 76 30.08 0.0
23 02:55 Calm 10.00 Overcast OVC240 76.1 75.9 99% 75 30.09 0.0
23 02:35 Calm 10.00 Overcast BKN230 OVC250 76.3 75.9 99% 76 30.09 0.0
23 02:15 Calm 10.00 Overcast SCT200 OVC230 76.5 75.6 97% 76 30.08 0.0
23 01:55 Calm 10.00 Overcast OVC200 75.9 74.8 96% 75 30.09 0.0
23 01:35 SW 3 10.00 Overcast BKN180 OVC210 75.9 74.7 96% 75 30.09 0.0
23 01:15 S 3 10.00 Overcast BKN190 OVC210 76.1 74.8 96% 76 30.09 0.0
23 00:55 SW 3 10.00 Overcast BKN170 OVC210 76.8 74.3 92% 78 30.08 0.0
23 00:35 SW 5 10.00 Overcast BKN170 OVC190 76.3 74.7 95% 76 30.08 0.0
23 00:15 S 5 10.00 Overcast BKN180 OVC220 76.3 75 96% 76 30.09 0.0
22 23:50 SE 3 10.00 Clear SKC 77 75.2 94% 78 30.09 0.0
22 22:50 Calm 10.00 Clear SKC 77 75.2 94% 78 30.09 0.0
22 21:50 Calm 10.00 Clear SKC 77 73.4 89% 78 30.07 0.0
22 20:50 Calm 10.00 Clear SKC 77 73.4 89% 78 30.06 0.0
22 19:50 N 3 10.00 Clear SKC 77 73.4 89% 78 30.06 0.0
22 18:50 NW 8 6.00 Mostly Cloudy BKN027 80.6 75.2 84% 86 30.07 0.0
22 17:50 NW 18 G 24 10.00 Thunderstorm in Vicinity BKN040 82.4 73.4 74% 88 30.01 0.0
22 16:50 SE 3 10.00 Partly Cloudy SCT055 93.2 75.2 56% 105 30.01 0.0
22 15:50 Calm 10.00 Mostly Cloudy BKN040 95 75.2 53% 107 30.01 0.0
22 14:50 Calm 10.00 Mostly Cloudy BKN048 93.2 75.2 56% 105 30.03 0.0
22 13:50 Calm 10.00 Mostly Cloudy BKN047 93.2 73.4 53% 103 30.05 0.0
22 12:50 NE 6 10.00 Mostly Cloudy BKN035 91.4 75.2 59% 103 30.07 0.0
22 11:50 Calm 10.00 Partly Cloudy SCT025 89.6 75.2 63% 100 30.07 0.0
22 10:45 Calm 10.00 Partly Cloudy SCT020 86 78.8 79% 99 30.08 0.0
22 09:55 SE 5 10.00 A Few Clouds FEW015 86 78.8 79% 99 30.08 0.0
22 08:50 SE 3 10.00 Clear SKC 82.4 78.8 89% 92 30.08 0.0
22 07:50 Calm 10.00 Clear SKC 77 77 100% 78 30.05 0.0
22 06:50 Calm 10.00 Clear SKC 77 77 100% 78 30.04 0.0
22 05:55 E 5 10.00 Fair CLR 77 76.6 99% 78 30.02 0.0
22 05:50 NE 5 10.00 Clear SKC 77 77 100% 78 30.02 0.0
22 05:35 Calm 10.00 Fair CLR 77.2 76.6 98% 78 30.02 0.0
22 05:15 Calm 10.00 Fair CLR 77.4 76.5 97% 79 30.03 0.0
22 04:55 E 3 10.00 Fair CLR 77.2 76.3 97% 78 30.03 0.0
22 04:35 Calm 10.00 Fair CLR 77 76.5 98% 78 30.03 0.0
22 04:15 Calm 10.00 Fair CLR 77 76.3 98% 78 30.04 0.0
22 03:55 NE 5 10.00 Fair CLR 77.2 76.3 97% 78 30.04 0.0
22 03:35 NE 3 10.00 Fair CLR 77.5 76.5 96% 79 30.05 0.0
22 03:15 NE 6 10.00 Fair CLR 78.1 75.9 93% 81 30.05 0.0
22 02:55 N 3 10.00 Fair CLR 78.1 75.6 92% 81 30.06 0.0
22 02:35 Calm 10.00 Fair CLR 78.6 76.3 93% 82 30.06 0.0
22 02:15 Calm 10.00 Fair CLR 78.3 76.3 94% 81 30.07 0.0
22 01:55 E 5 10.00 Fair CLR 78.1 77 97% 81 30.07 0.0
22 01:35 E 3 10.00 Fair CLR 78.4 77.2 96% 82 30.07 0.0
22 01:15 Calm 10.00 Fair CLR 79 77 94% 83 30.07 0.0
22 00:55 E 3 10.00 Fair CLR 78.8 76.8 94% 83 30.08 0.0
22 00:35 Calm 10.00 Fair CLR 79.2 76.5 91% 84 30.08 0.0
22 00:15 Calm 10.00 A Few Clouds FEW035 79.2 76.5 91% 84 30.09 0.0
21 23:50 Calm 10.00 Mostly Cloudy BKN036 78.8 77 94% 83 30.11 0.0
21 22:50 E 3 10.00 Mostly Cloudy BKN034 78.8 75.2 89% 82 30.1 0.0
21 21:50 SE 3 10.00 Mostly Cloudy BKN040 78.8 75.2 89% 82 30.08 0.0
21 20:50 NW 10 8.00 Thunderstorm in Vicinity OVC043 77 73.4 89% 78 30.08 0.0
21 19:50 N 7 8.00 Mostly Cloudy BKN043 82.4 73.4 74% 88 30.06 0.0
21 18:50 Calm 8.00 Mostly Cloudy BKN090 93.2 75.2 56% 105 30.02 0.0
21 17:50 SE 6 10.00 Clear SKC 93.2 75.2 56% 105 29.99 0.0
21 16:50 SE 8 10.00 Clear SKC 93.2 77 59% 107 30.01 0.0
21 15:52 SE 13 10.00 Mostly Cloudy SCT050 BKN110 91.4 77 63% 105 30.03 0.0
21 14:50 NE 6 10.00 Mostly Cloudy BKN040 93.2 77 59% 107 30.05 0.0
21 13:50 Calm 10.00 Mostly Cloudy BKN040 93.2 77 59% 107 30.07 0.0
21 12:49 Calm 10.00 Mostly Cloudy BKN025 91.4 77 63% 105 30.09 0.0
21 11:48 Calm 10.00 Mostly Cloudy BKN025 87.8 78.8 75% 102 30.1 0.0
21 10:50 Calm 10.00 Partly Cloudy SCT020 86 78.8 79% 99 30.11 0.0
21 09:50 S 3 10.00 A Few Clouds FEW012 86 80.6 84% 102 30.11 0.0
21 08:50 Calm 10.00 Clear SKC 82.4 80.6 94% 94 30.11 0.0
21 07:50 Calm 10.00 Clear SKC 78.8 77 94% 83 30.1 0.0
21 06:50 Calm 10.00 Clear SKC 77 77 100% 78 30.08 0.0
21 05:55 Calm 10.00 Overcast OVC270 76.5 76.5 100% 76 30.07 0.0
21 05:50 SE 3 10.00 Clear SKC 77 77 100% 78 30.06 0.0
21 05:35 Calm 10.00 Overcast OVC270 76.5 76.5 100% 76 30.06 0.0
21 05:15 Calm 10.00 Overcast OVC260 76.1 76.1 100% 75 30.06 0.0
21 04:55 Calm 10.00 Overcast SCT210 OVC260 76.6 75.9 98% 77 30.06 0.0
21 04:35 Calm 10.00 Overcast BKN210 OVC260 76.5 75.7 98% 76 30.07 0.0
21 04:15 E 3 10.00 Overcast SCT210 OVC260 76.6 75.9 98% 77 30.07 0.0
21 03:55 E 6 10.00 Overcast BKN210 OVC250 76.6 76.5 99% 77 30.07 0.0
21 03:35 E 5 10.00 Overcast BKN220 OVC250 76.5 76.5 100% 76 30.08 0.0
21 03:15 E 5 10.00 Overcast BKN210 OVC250 76.5 76.5 100% 76 30.09 0.0
21 02:55 E 7 10.00 Overcast OVC210 76.3 76.3 100% 76 30.09 0.0
21 02:35 NE 6 10.00 Overcast OVC200 76.1 75.9 99% 75 30.1 0.0
21 02:15 SE 3 10.00 Overcast OVC200 75.7 75 98% 74 30.11 0.0
21 01:55 NE 5 10.00 Overcast OVC200 75.6 75.2 99% 74 30.11 0.0
Date Time (edt) Wind (mph) Vis. (mi.) Weather Sky Cond. Air Dwpt Max. Min. Relative Humidity Wind Chill (°F) Heat Index (°F) altimeter (in) sea level (mb) 1 hr 3 hr 6 hr
6 hour
Temperature (ºF) Pressure Precipitation (in)